| time (UTC) | temp C | wind direction | speed KPH | gust KPH | rain 1hr cm | rain 24hr cm | rain mn cm | humidity % | barometer mb |
| 20260504150556 | 17 | 194 | 27.4 | 40.2 | 0.00 | 0.00 | 0.00 | 83 | 938.7 |
| 20260504140539 | 16 | 193 | 25.7 | 41.8 | 0.00 | 0.00 | 0.00 | 86 | 938.5 |
| 20260504130558 | 15 | 178 | 24.1 | 41.8 | 0.00 | 0.00 | 0.00 | 88 | 938.1 |
| 20260504110546 | 14 | 177 | 25.7 | 33.8 | 0.00 | 0.00 | 0.00 | 87 | 937.8 |
| 20260504100516 | 14 | 177 | 22.5 | 35.4 | 0.00 | 0.00 | 0.00 | 86 | 938.2 |
| 20260504081524 | 14 | 180 | 20.9 | 33.8 | 0.00 | 0.00 | 0.00 | 83 | 939.0 |
| 20260504080608 | 14 | 176 | 22.5 | 32.2 | 0.00 | 0.00 | 0.00 | 82 | 939.3 |
| 20260504050545 | 15 | 169 | 8.0 | 17.7 | 0.00 | 0.00 | 0.00 | 66 | 941.0 |
| 20260504045534 | 15 | 173 | 9.7 | 17.7 | 0.00 | 0.00 | 0.00 | 64 | 941.0 |
| 20260504044537 | 15 | 167 | 6.4 | 14.5 | 0.00 | 0.00 | 0.00 | 63 | 941.1 |
| 20260504043604 | 15 | 167 | 9.7 | 14.5 | 0.00 | 0.00 | 0.00 | 64 | 941.0 |
| 20260504042601 | 15 | 170 | 11.3 | 16.1 | 0.00 | 0.00 | 0.00 | 63 | 941.1 |
| 20260504041539 | 16 | 173 | 8.0 | 14.5 | 0.00 | 0.00 | 0.00 | 61 | 941.4 |
| 20260504040603 | 16 | 170 | 8.0 | 12.9 | 0.00 | 0.00 | 0.00 | 61 | 941.3 |
| 20260504035613 | 16 | 175 | 6.4 | 12.9 | 0.00 | 0.00 | 0.00 | 64 | 941.2 |
| 20260504034556 | 15 | 174 | 6.4 | 14.5 | 0.00 | 0.00 | 0.00 | 64 | 941.3 |
| 20260504033542 | 15 | 187 | 6.4 | 12.9 | 0.00 | 0.00 | 0.00 | 63 | 941.3 |
| 20260504032533 | 16 | 173 | 6.4 | 12.9 | 0.00 | 0.00 | 0.00 | 62 | 941.3 |
| 20260504031519 | 16 | 179 | 8.0 | 11.3 | 0.00 | 0.00 | 0.00 | 62 | 941.3 |
| 20260504030616 | 16 | 175 | 6.4 | 9.7 | 0.00 | 0.00 | 0.00 | 62 | 941.2 |
| 20260504025545 | 16 | 174 | 4.8 | 9.7 | 0.00 | 0.00 | 0.00 | 60 | 941.3 |
| 20260504024534 | 16 | 173 | 4.8 | 9.7 | 0.00 | 0.00 | 0.00 | 59 | 941.2 |
| 20260504023524 | 16 | 175 | 4.8 | 8.0 | 0.00 | 0.00 | 0.00 | 58 | 941.4 |
| 20260504022709 | 16 | 183 | 8.0 | 11.3 | 0.00 | 0.00 | 0.00 | 57 | 941.3 |
| 20260504021552 | 17 | 175 | 8.0 | 12.9 | 0.00 | 0.00 | 0.00 | 56 | 941.3 |
| 20260504020543 | 17 | 179 | 8.0 | 14.5 | 0.00 | 0.00 | 0.00 | 55 | 941.1 |
| 20260504015525 | 17 | 182 | 6.4 | 11.3 | 0.00 | 0.00 | 0.00 | 54 | 940.9 |
| 20260504014629 | 17 | 175 | 3.2 | 8.0 | 0.00 | 0.00 | 0.00 | 53 | 941.1 |
| 20260504013550 | 18 | 200 | 8.0 | 14.5 | 0.00 | 0.00 | 0.00 | 50 | 941.0 |
| 20260504012529 | 18 | 191 | 8.0 | 12.9 | 0.00 | 0.00 | 0.00 | 49 | 941.0 |
| 20260504011520 | 18 | 195 | 9.7 | 17.7 | 0.00 | 0.00 | 0.00 | 48 | 940.9 |
| 20260504010606 | 18 | 199 | 8.0 | 12.9 | 0.00 | 0.00 | 0.00 | 48 | 940.7 |
| 20260504005547 | 19 | 192 | 9.7 | 16.1 | 0.00 | 0.00 | 0.00 | 45 | 940.8 |
| 20260504004534 | 20 | 188 | 11.3 | 17.7 | 0.00 | 0.00 | 0.00 | 44 | 940.8 |
| 20260504003617 | 20 | 192 | 9.7 | 16.1 | 0.00 | 0.00 | 0.00 | 45 | 940.5 |
| 20260504002602 | 20 | 178 | 9.7 | 16.1 | 0.00 | 0.00 | 0.00 | 43 | 940.7 |
| 20260504001556 | 21 | 182 | 9.7 | 17.7 | 0.00 | 0.00 | 0.00 | 42 | 940.8 |
| 20260504000530 | 21 | 180 | 12.9 | 22.5 | 0.00 | 0.00 | 0.00 | 42 | 941.0 |
| 20260503235538 | 21 | 195 | 14.5 | 24.1 | 0.00 | 0.00 | 0.00 | 40 | 941.2 |
| 20260503234606 | 21 | 203 | 14.5 | 24.1 | 0.00 | 0.00 | 0.00 | 40 | 941.4 |
| 20260503233553 | 21 | 189 | 12.9 | 22.5 | 0.00 | 0.00 | 0.00 | 39 | 941.5 |
| 20260503232539 | 21 | 180 | 12.9 | 20.9 | 0.00 | 0.00 | 0.00 | 37 | 941.5 |
| 20260503231521 | 21 | 191 | 14.5 | 24.1 | 0.00 | 0.00 | 0.00 | 37 | 941.6 |
| 20260503230609 | 21 | 192 | 6.4 | 17.7 | 0.00 | 0.00 | 0.00 | 38 | 941.7 |
| 20260503225657 | 22 | 206 | 17.7 | 29.0 | 0.00 | 0.00 | 0.00 | 36 | 941.8 |
| 20260503224553 | 22 | 186 | 9.7 | 20.9 | 0.00 | 0.00 | 0.00 | 37 | 941.6 |
| 20260503223526 | 22 | 176 | 12.9 | 30.6 | 0.00 | 0.00 | 0.00 | 35 | 941.6 |
| 20260503222515 | 22 | 167 | 12.9 | 20.9 | 0.00 | 0.00 | 0.00 | 36 | 941.6 |
| 20260503220557 | 21 | 195 | 19.3 | 30.6 | 0.00 | 0.00 | 0.00 | 37 | 941.9 |
| 20260503215527 | 21 | 193 | 14.5 | 25.7 | 0.00 | 0.00 | 0.00 | 35 | 942.0 |
| 20260503214618 | 22 | 181 | 14.5 | 25.7 | 0.00 | 0.00 | 0.00 | 35 | 942.4 |
| 20260503213555 | 21 | 186 | 14.5 | 29.0 | 0.00 | 0.00 | 0.00 | 35 | 942.4 |
| 20260503212540 | 22 | 174 | 14.5 | 29.0 | 0.00 | 0.00 | 0.00 | 35 | 942.4 |
| 20260503211540 | 22 | 173 | 14.5 | 22.5 | 0.00 | 0.00 | 0.00 | 37 | 942.9 |
| 20260503210629 | 22 | 161 | 11.3 | 24.1 | 0.00 | 0.00 | 0.00 | 36 | 943.1 |
| 20260503205618 | 22 | 173 | 14.5 | 32.2 | 0.00 | 0.00 | 0.00 | 38 | 943.1 |
| 20260503204547 | 22 | 203 | 20.9 | 29.0 | 0.00 | 0.00 | 0.00 | 35 | 943.4 |
| 20260503203545 | 22 | 195 | 16.1 | 25.7 | 0.00 | 0.00 | 0.00 | 38 | 943.6 |
| 20260503202609 | 21 | 218 | 12.9 | 22.5 | 0.00 | 0.00 | 0.00 | 39 | 943.7 |
| 20260503201610 | 21 | 196 | 12.9 | 29.0 | 0.00 | 0.00 | 0.00 | 39 | 943.8 |
| 20260503200536 | 21 | 203 | 16.1 | 29.0 | 0.00 | 0.00 | 0.00 | 37 | 944.1 |
| 20260503195625 | 21 | 203 | 17.7 | 29.0 | 0.00 | 0.00 | 0.00 | 39 | 944.2 |
| 20260503194622 | 21 | 200 | 17.7 | 27.4 | 0.00 | 0.00 | 0.00 | 36 | 944.5 |
| 20260503193612 | 21 | 180 | 8.0 | 17.7 | 0.00 | 0.00 | 0.00 | 40 | 944.5 |
| 20260503192540 | 21 | 200 | 11.3 | 30.6 | 0.00 | 0.00 | 0.00 | 39 | 944.8 |
| 20260503191526 | 21 | 202 | 14.5 | 20.9 | 0.00 | 0.00 | 0.00 | 40 | 944.8 |
| 20260503190558 | 21 | 165 | 9.7 | 27.4 | 0.00 | 0.00 | 0.00 | 40 | 944.9 |
| 20260503185547 | 21 | 165 | 8.0 | 20.9 | 0.00 | 0.00 | 0.00 | 41 | 945.1 |
| 20260503184523 | 21 | 164 | 11.3 | 25.7 | 0.00 | 0.00 | 0.00 | 42 | 945.1 |
| 20260503183609 | 21 | 181 | 8.0 | 25.7 | 0.00 | 0.00 | 0.00 | 40 | 945.2 |
| 20260503182554 | 21 | 162 | 12.9 | 20.9 | 0.00 | 0.00 | 0.00 | 41 | 945.5 |
| 20260503181600 | 21 | 179 | 9.7 | 29.0 | 0.00 | 0.00 | 0.00 | 44 | 945.7 |
| 20260503180521 | 20 | 186 | 11.3 | 24.1 | 0.00 | 0.00 | 0.00 | 43 | 945.8 |
| 20260503175626 | 20 | 191 | 9.7 | 17.7 | 0.00 | 0.00 | 0.00 | 41 | 945.9 |
| 20260503174547 | 20 | 177 | 11.3 | 29.0 | 0.00 | 0.00 | 0.00 | 41 | 946.0 |
| 20260503173549 | 20 | 124 | 6.4 | 22.5 | 0.00 | 0.00 | 0.00 | 42 | 946.5 |
| 20260503172515 | 20 | 167 | 9.7 | 27.4 | 0.00 | 0.00 | 0.00 | 42 | 946.5 |
| 20260503171623 | 20 | 158 | 8.0 | 24.1 | 0.00 | 0.00 | 0.00 | 42 | 946.7 |
| 20260503170545 | 20 | 171 | 14.5 | 22.5 | 0.00 | 0.00 | 0.00 | 42 | 946.9 |